Regional Weather Roundup
Issued by NWS

Home | Current Version | Previous Version | Graphics & Text | Print | Product List | Glossary Off
Versions: 1 2 3 4 5 6 7 8 9 10 11 12 13 14 15 16 17 18 19 20 21 22 23 24 25 26 27 28 29 30 31 32 33 34 35 36 37 38 39 40 41 42 43 44 45 46 47 48 49 50

000
ASUS43 KTOP 270859
RWRKS

WEATHER ROUNDUP FOR KANSAS
NATIONAL WEATHER SERVICE GOODLAND KS
300 AM CST SAT DEC 27 2014

NOTE:  "FAIR" INDICATES FEW OR NO CLOUDS BELOW 12,000 FEET WITH NO
SIGNIFICANT WEATHER AND/OR OBSTRUCTIONS TO VISIBILITY.

KSZ001>006-013>018-027>032-041>047-271000-
NORTHWEST KANSAS

CITY           SKY/WX    TMP DP  RH WIND       PRES   REMARKS
GOODLAND       CLEAR      7   4  87 NW9       30.14R
HAYS           CLEAR     16   5  62 NW8       30.22R
HILL CITY      CLEAR     11   8  88 NW6       30.23R
RUSSELL        PTCLDY    20  18  92 NW12      30.21R WCI   8
$$

KSZ061>065-074>080-084>089-271000-
SOUTHWEST KANSAS

CITY           SKY/WX    TMP DP  RH WIND       PRES   REMARKS
DODGE CITY     MOCLDY    17  13  84 NW12      30.18F WCI   4
ELKHART          N/A     15   8  73 NW5         N/A
GARDEN CITY    PTCLDY    12  10  92 NW12      30.18F WCI  -2
GREAT BEND     PTCLDY    21  14  73 NW12      30.21S WCI   9
LIBERAL        CLEAR     19  14  79 NW8       30.21R
$$

KSZ066>073-081>083-090>101-271000-
SOUTHEAST KANSAS

CITY           SKY/WX    TMP DP  RH WIND       PRES   REMARKS
CHANUTE        CLOUDY    35  30  82 NW17      30.13F WCI  25
COFFEYVILLE    CLOUDY    37  32  82 NW14      30.13S WCI  28
HUTCHINSON     MOCLDY    27  21  78 NW14      30.18R WCI  16
MEDICINE LODGE   N/A     28  22  78 NW14      30.20R WCI  17
NEWTON         CLOUDY    28  19  69 NW24G31   30.16R WCI  14
PARSONS        CLOUDY    37  32  82 NW15G21   30.14R WCI  28
WICHITA INTL   CLOUDY    31  24  75 NW17      30.18R WCI  19
WICHITA JABRA  CLOUDY    31  24  75 NW12      30.18R WCI  22
WINFIELD       CLOUDY    33  27  78 NW16      30.18R WCI  23
$$

KSZ007>012-019>026-033>040-048>060-102>105-271000-
NORTHEAST KANSAS

CITY           SKY/WX    TMP DP  RH WIND       PRES   REMARKS
CONCORDIA      CLEAR     22  19  89 NW13      30.18R WCI  10
EMPORIA        CLOUDY    31  28  89 NW15G23   30.12R WCI  20
LAWRENCE       CLOUDY    34  30  85 W14       30.10S WCI  25
MANHATTAN      CLOUDY    28  23  81 NW8       30.15S
OLATHE IND     MOCLDY    34  30  85 W10       30.11R WCI  26
OLATHE EXE     MOCLDY    34  30  85 W7        30.09R
SALINA         PTCLDY    26  21  81 NW17      30.19F WCI  13
TOPEKA BILLARD CLOUDY    35  31  85 W12       30.12R WCI  27
TOPEKA FORBES  CLOUDY    34  30  85 W16       30.11R WCI  24
$$


USA.gov is the U.S. government's official web portal to all federal, state and local government web resources and services.